This demonstration page uses our WeatherBlox Daily Observations layout. Learn more.

38.89511, -77.03637

Hourly Observations for December 8, 2016

Temp ( °F °C ) Dew Point ( °F °C ) Humidity (%) Winds ( mph kmh ) Pressure ( in mb ) Visibility ( mi km ) Precip ( " mm )
12:52 am 00:52 Mostly Cloudy 38 3.3 34 1.1 86 86 SW 3 6 30.07 1018 10 16.0934 0 0
1:52 am 01:52 Mostly Cloudy 37 2.8 34 1.1 89 89 N 3 6 30.07 1018 10 16.0934 0 0
2:52 am 02:52 Cloudy 38 3.3 35 1.7 89 89 Calm 30.06 1018 10 16.0934 0 0
3:52 am 03:52 Cloudy 39 3.9 34 1.1 82 82 S 3 6 30.06 1018 10 16.0934 0 0
4:52 am 04:52 Cloudy 39 3.9 36 2.2 89 89 N 3 6 30.04 1017 10 16.0934 0 0
5:52 am 05:52 Cloudy 41 5 34 1.1 76 76 N 5 7 30.05 1018 10 16.0934 0 0
6:52 am 06:52 Cloudy 42 5.6 34 1.1 73 73 NE 3 6 30.05 1018 10 16.0934 0 0
7:52 am 07:52 Cloudy 43 6.1 31 -0.6 63 63 N 6 9 30.05 1018 10 16.0934 0 0
8:52 am 08:52 Cloudy 45 7.2 33 0.6 63 63 Calm 30.06 1018 10 16.0934 0 0
9:52 am 09:52 Cloudy 46 7.8 30 -1.1 54 54 VRB 5 7 30.06 1018 10 16.0934 0 0
10:52 am 10:52 Cloudy 47 8.3 25 -3.9 42 42 W 9 15 30.06 1018 10 16.0934 0 0
11:52 am 11:52 Mostly Cloudy 47 8.3 23 -5 39 39 W 8 13 30.03 1017 10 16.0934 0 0
12:52 pm 12:52 Cloudy 48 8.9 22 -5.6 36 36 WNW 8 13 30 1016 10 16.0934 0 0
1:52 pm 13:52 Cloudy 47 8.3 18 -7.8 31 31 W 15 24 30.01 1016 10 16.0934 0 0
2:52 pm 14:52 Mostly Cloudy 48 8.9 18 -7.8 30 30 W 9 15 30.01 1016 10 16.0934 0 0
3:52 pm 15:52 Mostly Cloudy 48 8.9 17 -8.3 29 29 NW 14 22 30.04 1017 10 16.0934 0 0
4:52 pm 16:52 Mostly Cloudy 45 7.2 14 -10 29 29 NW 15 24 30.07 1018 10 16.0934 0 0
5:52 pm 17:52 Partly Cloudy 44 6.7 16 -8.9 32 32 WNW 9 15 30.09 1019 10 16.0934 0 0
6:52 pm 18:52 Mostly Clear 42 5.6 16 -8.9 35 35 WNW 12 19 30.12 1020 10 16.0934 0 0
7:52 pm 19:52 Clear 40 4.4 15 -9.4 36 36 NW 13 20 30.14 1021 10 16.0934 0 0
8:52 pm 20:52 Partly Cloudy 38 3.3 16 -8.9 41 41 NNW 17 28 30.17 1022 10 16.0934 0 0
9:52 pm 21:52 Mostly Clear 36 2.2 15 -9.4 42 42 NW 20 31 30.19 1022 10 16.0934 0 0
10:52 pm 22:52 Mostly Clear 35 1.7 13 -10.6 40 40 NW 18 30 30.2 1023 10 16.0934 0 0
11:52 pm 23:52 Mostly Clear 34 1.1 15 -9.4 46 46 NW 10 17 30.21 1023 10 16.0934 0 0

Powered by AerisWeather